Back to catalog

FENGYUN 1C DEB

AliveLEO
NORAD 31565·DEBRIS·🇨🇳 China

Launched May 10, 1999 from Taiyuan Satellite Launch Center

Loading…

Next Passes (next 24 hours)

TLE

FreshSource: Space-Track

Epoch: Sep 14, 2026, 14:00 UTC

1 31565U 99025BZG 26257.58350354  .00007643  00000-0  22170-2 0  9994
2 31565 100.7135 204.3554 0052872 337.1797  22.7036 14.43948558683281

Track FENGYUN 1C DEB in real time with AllMySat

Download on the App Store